Lid_Strength_Index
14 15 15 16 16 15 15 16 17 17 17 19 19 20 20 21 22 21 21 19 18 17 17 15 14 14 14 14 14 14 14 14 15 15 19 14 13 14 13 16 16 15 15
15 15 16 16 17 18 18 18 18 18 19 19 20 20 20 20 20 20 21 19 19 18 18 15 15 14 14 14 14 14 14 14 14 15 14 14 14 18 19 19 15 14 15
15 16 17 17 17 17 17 18 19 18 19 19 19 19 19 19 19 19 18 18 17 16 16 16 15 15 15 14 14 14 14 13 14 15 14 13 13 18 18 17 17 16 14
16 16 17 17 18 18 18 18 18 18 18 18 19 19 18 18 18 17 17 17 17 16 16 16 15 15 14 14 15 14 14 14 14 15 14 14 14 14 19 18 16 16 15
18 17 18 18 18 18 18 19 19 19 19 19 19 19 19 18 17 18 17 17 17 16 16 16 14 14 13 13 14 14 15 15 15 15 15 15 15 16 19 19 18 18 17
18 19 20 20 20 20 19 20 19 19 20 20 20 20 19 18 16 15 16 17 16 16 17 15 14 14 13 12 12 12 13 15 16 16 16 16 16 18 19 19 21 21 19
20 20 20 20 20 20 21 21 21 21 21 21 20 19 19 19 16 15 14 15 16 16 15 15 14 14 14 14 13 12 12 12 13 15 17 16 18 17 18 20 21 21 20
19 19 19 19 20 20 20 21 21 20 20 20 20 20 19 18 16 15 14 15 15 15 15 15 15 14 14 15 15 15 15 14 13 13 14 15 15 16 16 17 20 22 22
19 19 19 19 19 19 20 20 20 19 19 18 18 18 18 18 16 15 15 15 14 14 14 14 14 14 14 13 15 16 16 16 13 12 11 11 11 11 13 17 17 16 17
18 18 19 19 19 19 19 19 18 18 18 17 17 17 17 17 15 14 14 14 15 15 14 13 13 14 13 13 14 15 16 15 15 17 16 13 11 12 10 12 14 15 16
18 18 19 18 19 19 18 18 18 19 18 19 19 19 18 18 18 15 14 14 14 14 14 14 14 12 12 12 12 14 14 14 15 15 17 17 18 17 16 16 15 13 14
19 19 19 20 18 18 19 19 19 20 20 20 20 19 19 18 17 16 14 14 14 14 15 15 14 12 12 12 12 12 11 11 13 15 15 16 17 17 17 16 15 15 13
20 20 21 21 19 18 20 19 20 20 20 20 19 20 20 18 18 15 14 14 13 15 14 14 14 13 13 13 13 12 12 13 14 14 15 15 15 15 16 18 17 17 16
22 22 22 22 21 21 19 19 20 22 21 19 20 20 21 20 20 19 18 18 16 17 17 19 17 16 16 16 19 17 17 17 17 17 18 18 18 19 18 18 17 17 16
20 21 20 20 20 21 20 21 20 20 20 22 23 22 24 24 20 16 17 19 20 18 24 25 24 24 23 23 22 22 22 21 21 21 22 21 21 17 16 19 17 17 16
20 20 20 20 21 21 21 22 18 16 15 15 15 18 19 16 15 14 14 13 13 13 25 26 25 24 24 24 25 24 24 22 22 24 25 22 21 20 19 19 18 18 18
21 20 20 21 21 22 23 24 25 21 17 16 14 13 13 14 13 13 13 13 13 13 23 26 26 25 25 25 25 26 26 26 28 27 26 25 24 23 22 23 22 20 22
22 22 22 22 23 24 25 25 26 26 26 25 20 18 16 15 14 13 13 13 20 20 26 25 24 24 25 25 25 26 26 27 28 26 28 28 29 27 28 27 26 25 25
23 23 23 23 24 24 24 25 26 27 27 27 28 22 23 17 16 15 14 20 22 22 23 24 24 25 25 25 24 25 26 26 26 27 28 28 29 29 29 29 29 27 26
22 21 22 23 24 25 25 27 26 27 26 26 25 25 28 29 30 29 29 29 30 28 27 26 26 28 27 27 27 28 28 29 28 28 27 28 29 28 26 28 29 29 29
22 22 22 24 24 24 24 25 26 28 27 27 25 26 19 26 25 26 26 29 27 27 26 28 27 27 29 29 28 28 28 26 27 26 26 26 28 30 26 27 27 27 28
24 24 26 25 25 25 26 28 29 29 28 27 25 28 17 20 25 26 26 26 25 26 26 26 26 27 26 26 26 27 27 26 28 27 26 26 26 27 28 29 28 27 28
30 30 31 32 31 30 31 30 29 28 26 26 25 24 27 25 25 26 25 25 26 26 27 27 26 26 28 27 26 23 23 24 24 24 25 26 25 26 26 26 26 26 26
32 30 28 28 29 30 28 27 27 26 25 25 26 26 25 25 26 26 25 26 26 26 26 26 26 25 25 26 26 24 21 20 23 22 23 25 26 26 29 30 28 26 26
31 30 29 27 28 27 27 27 27 27 26 25 24 25 25 25 26 26 25 26 26 26 26 26 25 25 25 25 24 23 24 19 19 22 22 23 23 25 27 27 28 29 27
28 28 27 27 27 27 27 26 26 26 26 25 25 25 25 25 25 25 26 27 26 26 27 26 26 25 25 24 24 22 21 19 20 20 22 22 22 22 23 22 23 26 26